Waarnemingen

Advertentie
Mijn weer
Andernach, Duitsland (10520): temperatuur & dauwpunt: 17.07.2017 08:00:00 - 23.07.2017 08:00:00 (CEST)Andernach, Duitsland (10520): temperatuur 5cm & temperatuur -5cm: 17.07.2017 08:00:00 - 23.07.2017 08:00:00 (CEST)Andernach, Duitsland (10520): temperatuur -20cm & temperatuur -100cm: 17.07.2017 08:00:00 - 23.07.2017 08:00:00 (CEST)Andernach, Duitsland (10520): windsnelheid & windstoten: 17.07.2017 08:00:00 - 23.07.2017 08:00:00 (CEST)Andernach, Duitsland (10520): windrichting: 17.07.2017 08:00:00 - 23.07.2017 08:00:00 (CEST)Andernach, Duitsland (10520): luchtdruk: 17.07.2017 08:00:00 - 23.07.2017 08:00:00 (CEST)Andernach, Duitsland (10520): zicht: 17.07.2017 08:00:00 - 23.07.2017 08:00:00 (CEST)Andernach, Duitsland (10520): Zonneschijnduur: 17.07.2017 08:00:00 - 23.07.2017 08:00:00 (CEST)Andernach, Duitsland (10520): neerslag: 17.07.2017 08:00:00 - 23.07.2017 08:00:00 (CEST)
Datum & Tijd tt [°C] td [°C] tt 5cm [°C] tt -5cm [°C] tt -20cm [°C] tt -100cm [°C] ff [km/u] ff [kn] fx [km/u] fx [kn] dd ppp [hPa] vv [km] sd [min] rr [mm]
23.07.2017 08:00:00 17,3 13,5 17,5 18,8 22,9 20,4 15 8 25 13 WZW 1014,7 70 15 0,0
23.07.2017 07:00:00 16,5 12,7 15,4 18,7 23,3 20,4 12 6 21 12 WZW 1014,2 70 21 0,0
23.07.2017 06:00:00 16,5 14,0 14,8 19,0 23,7 20,4 13 7 26 14 WZW 1013,4 60 0 0,0
23.07.2017 05:00:00 15,8 15,2 14,6 19,7 24,0 20,3 5 3 8 4 ZZO 1012,8 16 0 0,0
23.07.2017 04:00:00 17,3 15,5 15,8 20,6 24,4 20,3 7 4 18 10 ZW 1012,7 53 0 0,0
23.07.2017 03:00:00 17,8 16,2 17,2 21,2 24,8 20,3 7 4 13 7 WZW 1012,4 47 0 0,0
23.07.2017 02:00:00 17,9 16,3 17,0 21,6 25,2 20,3 6 3 18 10 NNO 1012,2 52 0 0,0
23.07.2017 01:00:00 17,8 16,5 17,2 22,2 25,6 20,3 11 6 55 30 ZZW 1012,2 48 0 7,5
23.07.2017 00:00:00 21,0 17,3 19,0 23,6 26,0 20,3 8 4 34 18 ZZW 1011,4 8 0 0,0
22.07.2017 23:00:00 21,7 16,6 20,5 24,4 26,3 20,3 7 4 18 10 O 1010,8 66 0 0,0
22.07.2017 22:00:00 22,5 16,7 19,8 25,8 26,6 20,3 5 3 13 7 ONO 1011,0 54 0 0,0
22.07.2017 21:00:00 24,1 16,5 22,4 27,7 26,7 20,3 5 3 19 10 O 1010,8 70 25 0,0
22.07.2017 20:00:00 27,3 11,5 26,8 29,4 26,7 20,3 13 7 29 15 ZW 1010,8 70 52 0,0
22.07.2017 19:00:00 28,1 10,4 28,5 30,4 26,6 20,3 16 9 30 16 WZW 1010,8 50 53 0,0
22.07.2017 18:00:00 28,1 11,2 29,3 31,0 26,4 20,3 16 8 34 18 ZW 1011,1 70 43 0,0
22.07.2017 17:00:00 28,2 11,5 30,2 31,4 26,1 20,2 20 11 33 18 ZW 1011,0 69 44 0,0
22.07.2017 16:00:00 28,3 13,5 29,7 30,5 25,8 20,2 15 8 34 19 ZW 1011,0 70 17 0,0
22.07.2017 15:00:00 26,9 15,7 29,0 31,9 25,3 20,2 14 8 29 16 ZO 1011,7 69 42 0,0
22.07.2017 14:00:00 26,6 14,4 29,7 31,0 24,9 20,2 16 9 32 17 Z 1011,9 47 59 0,0
22.07.2017 13:00:00 25,3 14,6 28,2 29,2 24,5 20,2 15 8 30 16 Z 1012,3 70 30 0,0
22.07.2017 12:00:00 24,2 15,5 25,5 28,9 24,1 20,2 14 8 26 14 ZZW 1012,5 67 37 0,0
22.07.2017 11:00:00 23,3 15,9 26,3 27,2 23,8 20,2 5 3 14 7 ZZO 1012,6 50 47 0,0
22.07.2017 10:00:00 21,7 17,5 24,9 24,4 23,8 20,2 6 3 12 7 OZO 1012,7 38 45 0,0
22.07.2017 09:00:00 20,1 17,5 20,1 22,4 23,9 20,2 5 3 9 5 ZZO 1012,7 35 19 0,0
22.07.2017 08:00:00 18,6 17,1 18,6 21,4 24,2 20,2 3 2 5 3 ZZO 1012,4 17 0 0,0
22.07.2017 07:00:00 17,8 16,9 17,1 21,2 24,5 20,2 0 0 7 4 N 1011,8 15 0 0,0
22.07.2017 06:00:00 18,1 17,0 17,7 21,5 24,9 20,2 3 2 9 5 Z 1011,7 23 0 0,0
22.07.2017 05:00:00 18,0 17,2 17,8 21,8 25,3 20,2 4 2 6 4 Z 1011,3 13 0 0,0
22.07.2017 04:00:00 18,2 17,0 18,0 22,2 25,7 20,2 5 3 10 5 NW 1011,5 26 0 0,1
22.07.2017 03:00:00 18,3 17,1 17,8 22,6 26,2 20,2 5 3 19 10 ONO 1011,9 23 0 1,8
22.07.2017 02:00:00 18,6 16,9 17,7 23,6 26,5 20,2 13 7 36 19 ZZW 1011,6 9 0 7,3
22.07.2017 01:00:00 20,1 14,7 19,2 25,1 27,0 20,1 5 3 7 4 ZZW 1010,1 60 0 0,0
22.07.2017 00:00:00 21,1 14,0 18,8 26,1 27,4 20,1 2 1 5 3 WNW 1010,0 70 0 0,0
21.07.2017 23:00:00 22,2 13,6 19,4 27,3 27,8 20,1 3 2 6 3 NNW 1010,1 70 0 0,0
21.07.2017 22:00:00 23,1 13,3 20,0 29,0 28,1 20,1 4 2 13 7 ONO 1010,2 68 0 0,0
21.07.2017 21:00:00 25,3 12,7 24,5 31,0 28,2 20,1 6 3 16 9 ONO 1010,2 70 0 0,0
21.07.2017 20:00:00 26,5 12,1 27,4 32,9 28,1 20,1 7 4 16 9 ZO 1010,2 70 19 0,0
21.07.2017 19:00:00 26,2 11,8 26,6 34,9 27,8 20,1 11 6 20 11 O 1010,2 70 22 0,0
21.07.2017 18:00:00 25,8 11,1 27,1 37,2 27,2 20,1 10 5 21 11 OZO 1010,8 70 31 0,0
21.07.2017 17:00:00 26,4 11,0 29,3 38,3 26,4 20,1 11 6 24 13 ZO 1011,4 68 54 0,0
21.07.2017 16:00:00 26,9 9,8 32,6 35,4 25,7 20,1 11 6 19 10 Z 1012,0 70 34 0,0
21.07.2017 15:00:00 25,9 10,2 32,0 33,9 25,0 20,1 8 5 18 10 O 1012,6 70 20 0,0
21.07.2017 14:00:00 24,5 10,4 28,6 33,8 24,3 20,0 6 4 21 11 OZO 1013,2 70 33 0,0
21.07.2017 13:00:00 23,8 10,5 30,5 32,5 23,5 20,0 10 5 19 10 OZO 1013,7 70 44 0,0
21.07.2017 12:00:00 22,5 10,3 29,1 30,6 22,9 20,0 8 5 16 8 Z 1014,4 70 56 0,0
21.07.2017 11:00:00 21,6 10,3 26,6 27,0 22,5 20,0 8 4 18 10 OZO 1015,0 63 60 0,0
21.07.2017 10:00:00 19,9 8,3 23,0 23,6 22,4 20,0 5 3 13 7 OZO 1015,3 69 60 0,0
21.07.2017 09:00:00 18,7 10,5 21,0 20,7 22,5 20,0 4 2 10 5 O 1015,3 63 58 0,0
21.07.2017 08:00:00 17,9 12,4 18,8 18,5 22,8 20,0 2 1 5 3 Z 1015,4 63 38 0,0
21.07.2017 07:00:00 14,9 11,5 15,7 18,0 23,2 20,0 4 2 7 4 ZZW 1015,5 64 20 0,0
21.07.2017 06:00:00 14,5 11,3 12,1 18,6 23,6 20,0 3 2 6 4 W 1015,1 70 0 0,0
21.07.2017 05:00:00 14,8 11,1 13,1 19,2 24,0 20,0 3 2 8 4 WNW 1014,9 70 0 0,0
21.07.2017 04:00:00 16,8 11,4 12,4 20,2 24,3 20,0 3 1 13 7 WNW 1014,9 70 0 0,0
21.07.2017 03:00:00 18,4 11,5 16,1 21,3 24,7 20,0 5 3 14 8 NW 1014,7 70 0 0,0
21.07.2017 02:00:00 19,1 11,9 18,4 22,0 25,0 19,9 10 5 23 12 NW 1014,5 70 0 0,0
21.07.2017 01:00:00 19,7 13,4 19,1 22,7 25,4 19,9 9 5 23 12 NNW 1014,3 70 0 0,0
21.07.2017 00:00:00 20,0 14,0 19,2 23,5 25,7 19,9 10 5 29 16 NNW 1013,7 70 0 0,0
20.07.2017 23:00:00 20,8 14,2 19,9 24,6 26,0 19,9 16 9 30 16 NNW 1012,8 70 0 0,0
20.07.2017 22:00:00 23,3 12,7 22,1 26,0 26,2 19,9 8 4 16 9 W 1012,0 70 0 0,0
20.07.2017 21:00:00 24,3 12,2 23,4 27,5 26,3 19,9 8 5 32 17 W 1010,9 70 1 0,0
20.07.2017 20:00:00 25,5 11,4 25,4 29,5 26,2 19,9 18 10 31 17 WZW 1010,2 50 59 0,0
20.07.2017 19:00:00 26,5 10,7 27,6 30,4 25,9 19,9 20 11 39 21 WZW 1009,8 60 24 0,0
20.07.2017 18:00:00 26,6 11,3 28,3 31,7 25,5 19,8 22 12 39 21 WZW 1009,7 42 52 0,0
20.07.2017 17:00:00 26,9 11,1 29,2 30,9 25,1 19,8 16 9 38 21 W 1009,6 45 20 0,0
20.07.2017 16:00:00 26,1 12,6 27,9 30,3 24,8 19,8 23 12 41 22 ZZW 1009,8 52 27 0,0
20.07.2017 15:00:00 26,9 12,4 30,6 29,1 24,4 19,8 21 11 39 21 ZW 1009,8 53 39 0,0
20.07.2017 14:00:00 24,9 13,7 26,1 27,2 24,2 19,8 14 7 32 18 WZW 1010,0 70 15 0,0
20.07.2017 13:00:00 24,3 16,5 25,6 26,4 24,1 19,8 14 8 27 15 ZW 1010,0 61 15 0,0
20.07.2017 12:00:00 23,3 17,2 24,6 25,0 24,0 19,8 18 10 29 16 ZW 1010,1 46 0 0,0
20.07.2017 11:00:00 22,3 17,4 21,3 24,0 24,1 19,8 14 8 21 11 WZW 1010,2 44 0 0,0
20.07.2017 10:00:00 21,3 18,6 20,9 22,9 24,2 19,8 4 2 7 4 OZO 1010,2 42 0 0,1
20.07.2017 09:00:00 20,5 18,4 20,4 22,5 24,4 19,8 3 1 5 3 ZO 1010,3 18 0 0,1
20.07.2017 08:00:00 19,8 18,8 19,7 22,2 24,6 19,8 3 2 12 6 ZZO 1009,7 11 0 0,0
20.07.2017 07:00:00 19,3 18,0 18,8 22,3 24,9 19,8 10 5 13 7 OZO 1009,7 18 0 0,5
20.07.2017 06:00:00 19,4 18,5 19,1 22,5 25,2 19,8 6 3 14 7 ZZW 1009,4 12 0 0,2
20.07.2017 05:00:00 19,3 18,3 19,0 22,9 25,5 19,8 4 2 13 7 O 1008,8 11 0 1,2
20.07.2017 04:00:00 19,8 17,6 19,0 23,4 25,9 19,7 4 2 9 5 W 1008,7 34 0 0,0
20.07.2017 03:00:00 19,6 17,7 18,9 24,0 26,2 19,7 4 2 7 4 OZO 1009,2 22 0 0,1
20.07.2017 02:00:00 19,9 16,8 19,4 24,4 26,6 19,7 5 3 6 4 Z 1009,6 40 0 0,0
20.07.2017 01:00:00 20,2 16,9 19,7 24,9 27,1 19,7 0 0 8 4 N 1009,5 42 0 0,0
20.07.2017 00:00:00 19,6 16,6 18,8 25,6 27,5 19,7 2 1 5 3 ZZW 1009,3 48 0 0,0
19.07.2017 23:00:00 20,0 16,3 18,3 27,0 27,9 19,7 5 3 7 4 ZZO 1009,5 54 0 0,0
19.07.2017 22:00:00 22,1 16,6 19,8 28,7 28,2 19,7 3 2 6 3 ZZW 1009,7 66 0 0,0
19.07.2017 21:00:00 23,9 16,0 23,0 30,7 28,4 19,7 5 3 13 7 ZO 1009,2 70 0 0,0
19.07.2017 20:00:00 24,7 15,5 25,4 32,3 28,5 19,7 10 6 16 9 NO 1009,6 70 0 0,0
19.07.2017 19:00:00 25,0 15,4 27,0 32,6 28,5 19,7 7 4 29 16 NNW 1009,8 58 0 0,0
19.07.2017 18:00:00 24,4 15,4 25,7 33,4 28,4 19,7 19 11 43 23 NNW 1010,4 47 0 0,0
19.07.2017 17:00:00 30,6 14,8 30,6 36,9 27,9 19,7 17 9 41 22 WZW 1009,1 52 6 0,0
19.07.2017 16:00:00 33,6 15,2 37,3 39,4 27,1 19,7 22 12 35 19 ZW 1008,3 39 44 0,0
19.07.2017 15:00:00 32,5 13,8 34,8 38,8 26,2 19,7 14 7 33 18 ZZW 1008,9 59 39 0,0
19.07.2017 14:00:00 32,2 13,7 37,2 37,5 25,3 19,7 12 6 28 15 ZO 1008,9 46 48 0,0
19.07.2017 13:00:00 31,9 14,5 36,4 35,6 24,4 19,7 12 7 29 16 Z 1009,6 38 60 0,0
19.07.2017 12:00:00 29,5 16,2 34,0 32,4 23,8 19,7 13 7 26 14 ZO 1010,2 35 58 0,0
19.07.2017 11:00:00 27,4 16,7 31,6 29,1 23,4 19,7 16 9 24 13 OZO 1010,6 30 60 0,0
19.07.2017 10:00:00 25,4 16,0 28,7 25,9 23,3 19,7 13 7 24 13 ZO 1011,5 30 60 0,0
19.07.2017 09:00:00 23,4 16,0 25,7 23,1 23,4 19,7 8 4 13 7 OZO 1011,8 34 60 0,0
19.07.2017 08:00:00 21,7 16,6 23,0 21,1 23,6 19,7 3 2 7 4 O 1012,1 31 52 0,0
19.07.2017 07:00:00 18,0 15,4 17,4 20,4 24,0 19,7 3 1 8 4 Z 1012,7 25 0 0,0
19.07.2017 06:00:00 17,2 15,2 15,6 20,7 24,4 19,7 6 3 8 4 ZZW 1012,8 31 0 0,0
19.07.2017 05:00:00 17,3 15,4 16,1 21,4 24,8 19,7 7 4 8 5 ZZW 1012,7 34 0 0,0
19.07.2017 04:00:00 18,0 15,6 16,7 22,1 25,3 19,7 6 3 8 4 ZW 1012,8 39 0 0,0
19.07.2017 03:00:00 18,4 15,9 16,0 22,9 25,7 19,7 5 3 7 4 ZZW 1013,0 45 0 0,0
19.07.2017 02:00:00 19,6 16,0 17,4 23,9 26,2 19,7 6 3 8 4 ZZW 1013,4 51 0 0,0
19.07.2017 01:00:00 21,0 16,2 17,7 25,0 26,6 19,7 3 2 5 3 WNW 1013,6 56 0 0,0
19.07.2017 00:00:00 22,3 16,2 19,3 26,3 27,0 19,7 3 1 7 4 NNW 1013,7 60 0 0,0
18.07.2017 23:00:00 23,8 15,8 19,8 27,9 27,4 19,7 5 3 11 6 O 1013,9 47 0 0,0
18.07.2017 22:00:00 25,1 15,6 21,5 29,9 27,6 19,7 5 3 16 8 O 1013,9 62 0 0,0
18.07.2017 21:00:00 27,9 15,4 27,3 32,0 27,6 19,7 9 5 21 12 O 1013,8 70 0 0,0
18.07.2017 20:00:00 28,8 15,1 29,0 34,1 27,5 19,7 15 8 29 16 O 1013,7 54 17 0,0
18.07.2017 19:00:00 29,4 15,0 30,7 35,7 27,1 19,7 14 7 24 13 OZO 1013,8 52 0 0,0
18.07.2017 18:00:00 29,4 15,1 31,8 36,4 26,6 19,7 14 7 23 13 O 1014,2 62 16 0,0
18.07.2017 17:00:00 28,6 14,9 31,0 37,8 25,8 19,7 12 6 22 12 OZO 1015,1 70 20 0,0
18.07.2017 16:00:00 28,4 13,7 32,3 38,9 24,9 19,7 9 5 22 12 O 1015,8 53 58 0,0
18.07.2017 15:00:00 28,5 14,5 33,5 37,5 23,9 19,7 9 5 21 11 ZO 1016,5 40 60 0,0
18.07.2017 14:00:00 27,4 14,9 32,6 35,3 22,9 19,7 13 7 23 12 OZO 1017,1 47 60 0,0
18.07.2017 13:00:00 25,8 14,3 30,4 33,3 22,0 19,7 9 5 19 10 O 1018,0 50 60 0,0
18.07.2017 12:00:00 24,6 14,1 29,8 29,9 21,3 19,7 8 4 15 8 O 1018,6 55 60 0,0
18.07.2017 11:00:00 23,6 13,5 28,3 26,6 20,9 19,7 4 2 16 8 NO 1019,1 57 60 0,0
18.07.2017 10:00:00 21,6 12,7 25,4 23,2 20,6 19,7 6 3 11 6 O 1019,6 62 60 0,0
18.07.2017 09:00:00 20,4 13,1 23,6 20,2 20,7 19,7 2 1 6 3 NNW 1020,0 40 60 0,0
18.07.2017 08:00:00 19,3 15,4 20,5 18,1 20,8 19,7 0 0 6 3 N 1020,3 27 57 0,0
18.07.2017 07:00:00 15,2 13,7 15,3 17,0 21,1 19,7 5 3 7 4 ZZW 1020,7 14 14 0,0
18.07.2017 06:00:00 13,8 12,9 12,5 17,1 21,5 19,7 4 2 9 5 ZZW 1020,7 14 0 0,0
18.07.2017 05:00:00 14,1 13,2 12,4 17,6 21,8 19,7 3 2 7 4 ZW 1020,5 15 0 0,0
18.07.2017 04:00:00 14,5 13,5 13,2 18,1 22,2 19,7 5 3 9 5 ZZW 1020,9 20 0 0,0
18.07.2017 03:00:00 14,9 13,8 13,5 18,8 22,6 19,7 5 3 8 4 ZZW 1021,1 21 0 0,0
18.07.2017 02:00:00 15,5 14,3 14,0 19,6 23,0 19,7 5 3 7 4 ZZW 1021,2 24 0 0,0
18.07.2017 01:00:00 16,6 14,8 13,8 20,5 23,3 19,7 3 1 8 4 ZW 1021,5 36 0 0,0
18.07.2017 00:00:00 17,8 15,2 14,7 21,6 23,7 19,7 5 3 7 4 WZW 1021,3 42 0 0,0
17.07.2017 23:00:00 19,2 15,3 15,6 22,9 23,9 19,7 4 2 9 5 NW 1021,3 55 0 0,0
17.07.2017 22:00:00 21,3 15,5 18,3 24,5 24,1 19,7 4 2 13 7 N 1020,9 22 0 0,0
17.07.2017 21:00:00 22,6 15,2 21,6 26,3 24,1 19,7 8 4 18 10 N 1020,6 70 0 0,0
17.07.2017 20:00:00 23,3 15,1 23,4 28,4 23,9 19,8 12 6 21 11 N 1020,5 70 1 0,0
17.07.2017 19:00:00 24,0 16,1 25,4 30,1 23,5 19,8 15 8 27 14 N 1020,4 46 0 0,0
17.07.2017 18:00:00 24,7 15,9 28,1 30,5 23,0 19,8 15 8 23 12 NW 1020,5 38 21 0,0
17.07.2017 17:00:00 24,0 15,7 26,7 28,9 22,7 19,8 14 8 27 15 NNO 1021,0 70 13 0,0
17.07.2017 16:00:00 23,2 16,0 26,0 27,0 22,4 19,8 13 7 25 13 NW 1021,4 70 0 0,0
17.07.2017 15:00:00 22,6 16,0 25,1 26,6 22,1 19,8 9 5 25 13 NW 1021,7 70 0 0,0
17.07.2017 14:00:00 22,4 16,1 25,2 27,2 21,8 19,8 17 9 29 16 NNW 1021,9 39 7 0,0
17.07.2017 13:00:00 22,6 16,4 25,2 26,1 21,4 19,8 12 6 22 12 NW 1021,6 30 0 0,0
17.07.2017 12:00:00 22,8 15,8 24,8 27,1 20,8 19,8 12 6 21 11 NNW 1021,4 38 15 0,0
17.07.2017 11:00:00 23,2 14,8 28,0 25,7 20,4 19,8 4 2 12 6 NW 1021,7 34 53 0,0
17.07.2017 10:00:00 21,8 15,0 24,9 23,0 20,2 19,8 4 2 8 5 OZO 1021,8 31 33 0,0
17.07.2017 09:00:00 20,1 15,9 22,1 20,2 20,2 19,8 3 2 6 3 O 1022,0 24 40 0,0
17.07.2017 08:00:00 18,2 15,2 19,6 18,1 20,3 19,8 2 1 9 5 Z 1022,0 31 23 0,0

tt = temperatuur
td = dauwpunt
tt 5cm = temperatuur 5cm
tt -5cm = temperatuur -5cm
tt -20cm = temperatuur -20cm
tt -100cm = temperatuur -100cm
ff = windsnelheid
fx = windstoten
dd = windrichting
ppp = luchtdruk
vv = zicht
sd = Zonneschijnduur
rr = neerslag

Weerstations in de omgeving